HST 1 20580U 90037B 24339.50256006 .00012481 00000-0 52920-3 0 9996 2 20580 28.4694 281.0825 0002237 103.3937 256.6906 15.21555689702961 ISS (ZARYA) 1 25544U 98067A 24339.96087914 .00017466 00000-0 31067-3 0 9999 2 25544 51.6384 189.3216 0006992 302.6085 199.9978 15.50224944485037 CXO 1 25867U 99040B 24342.39125787 .00000678 00000-0 00000-0 0 9998 2 25867 45.0848 140.4320 8695375 304.8223 0.1385 0.37803356 15219